Temperature
21 21 21 21 18 16 18 18 19 19 19 19 19 19 18 18 18 18 18 18 18 18 18 18 18 18 18 18 18 18 18 18 18 18 17 17 17 17 18 18 18 18 18 18 18 18 18 18 18
21 21 21 21 16 16 18 18 18 19 19 20 19 19 18 18 18 18 18 18 18 18 18 17 17 17 17 18 18 18 17 17 17 17 17 17 17 18 17 17 17 17 17 17 17 17 17 17 17
21 22 21 16 17 17 19 19 19 19 20 20 19 19 18 18 18 18 18 18 18 18 18 17 17 17 17 17 18 17 17 17 17 17 17 17 17 17 17 17 17 17 17 17 17 17 17 17 17
22 21 20 17 18 18 18 19 19 19 20 19 19 18 18 18 18 18 18 18 18 18 18 17 17 17 17 17 17 17 17 17 17 17 17 17 17 17 17 17 17 17 17 17 17 17 17 17 17
22 21 17 17 18 19 18 19 19 19 19 19 19 18 18 18 18 18 18 18 18 18 18 17 17 17 17 17 17 17 17 17 17 17 17 17 17 17 17 17 17 17 17 17 17 17 17 17 17
22 18 16 17 18 19 19 20 19 19 19 19 19 18 18 18 18 18 18 18 18 18 18 17 17 17 17 17 17 17 17 17 17 17 17 17 17 17 17 17 17 17 17 17 17 17 17 17 17
20 16 17 18 18 19 20 20 20 19 19 19 19 18 18 18 18 18 18 18 18 18 17 17 17 17 17 17 17 17 17 17 17 17 17 17 17 17 17 17 17 17 17 17 17 16 16 16 16
21 16 17 17 18 19 20 20 20 20 19 19 19 18 18 18 18 18 18 18 18 18 17 17 17 17 17 17 17 17 17 17 17 17 17 17 17 17 17 17 17 17 17 16 16 16 16 16 16
21 16 17 18 18 19 20 20 20 20 20 19 19 19 19 19 18 18 18 18 18 18 18 17 17 17 17 17 17 17 17 17 17 17 17 17 17 17 17 17 16 16 16 16 16 16 16 16 16
20 17 18 19 19 19 20 20 20 20 19 19 19 19 19 18 18 18 18 18 18 18 18 17 17 17 17 17 17 17 17 17 17 17 17 16 16 16 16 16 16 16 16 16 16 16 16 16 16
19 18 19 19 20 20 20 20 20 19 18 19 19 19 19 18 18 18 18 18 18 18 18 17 17 17 17 17 17 17 17 17 16 16 16 16 16 16 16 16 16 16 16 16 16 16 16 16 16
19 19 20 20 21 20 20 20 19 19 20 20 20 20 19 19 19 18 18 18 18 18 18 18 17 17 17 17 17 17 17 16 16 16 16 16 16 16 16 16 16 16 16 16 16 16 16 16 16
19 19 20 20 21 20 20 20 19 20 20 20 20 19 19 19 19 18 18 18 18 18 18 18 17 17 17 17 17 17 17 16 16 16 16 16 16 16 16 16 16 16 15 15 15 15 15 15 15
20 20 20 20 20 20 20 19 19 20 20 20 20 19 19 19 19 19 18 18 18 18 18 18 17 17 17 17 17 17 16 16 16 16 16 16 16 16 16 16 15 15 15 15 15 15 15 15 15
20 19 19 19 20 20 20 19 18 20 20 19 19 19 19 19 19 19 19 18 18 18 18 18 17 17 17 17 17 16 16 16 16 16 16 16 16 16 15 15 15 15 15 15 15 15 15 15 15
19 18 18 19 19 19 19 18 18 19 19 19 19 19 19 19 19 18 18 18 18 18 18 18 17 17 17 17 17 16 16 16 16 16 16 16 16 16 15 15 15 15 15 15 15 15 15 15 15
17 17 18 18 19 19 18 18 18 19 19 18 18 19 19 19 19 18 18 18 18 18 18 17 17 17 17 17 16 16 16 16 16 16 16 16 16 16 15 15 15 15 15 15 15 15 15 15 15
17 18 18 18 19 18 18 17 17 18 18 18 18 18 18 19 19 19 19 18 18 18 18 17 17 17 17 17 16 16 16 16 16 16 16 16 16 15 15 15 15 15 15 15 15 14 14 14 14
18 18 18 18 18 18 17 17 17 18 17 17 17 18 18 19 19 19 18 18 18 18 18 18 17 17 17 17 16 16 16 16 16 16 16 16 15 15 15 15 15 15 15 15 14 14 14 14 14
18 18 18 18 18 18 17 17 17 17 17 17 17 18 18 19 19 19 18 18 18 18 18 18 17 17 17 17 17 16 16 16 16 16 16 15 15 15 15 15 15 15 15 14 14 14 14 14 14
18 18 18 18 18 18 18 17 17 17 17 17 17 18 18 19 19 19 18 18 18 18 18 18 17 17 17 17 17 16 16 16 16 16 16 15 15 15 15 15 15 15 15 14 14 14 14 14 14
18 18 18 18 17 16 17 16 16 16 16 16 17 17 18 18 19 19 18 18 18 18 18 18 17 17 17 17 16 16 16 16 16 16 16 15 15 15 15 15 15 15 14 14 14 14 14 13 13
18 18 18 18 17 16 16 15 15 15 16 16 16 17 18 18 18 18 18 18 18 18 18 18 17 17 17 17 16 16 16 16 16 15 15 15 15 15 15 15 14 14 14 14 14 14 14 13 13
18 17 16 14 14 15 16 15 15 15 16 16 16 17 18 18 18 18 18 18 18 18 18 17 17 17 17 16 16 16 16 16 16 15 15 15 15 15 15 15 14 14 14 14 14 14 14 13 13
17 16 15 15 14 15 15 15 15 16 16 16 16 17 17 18 18 18 18 18 18 18 17 17 17 17 16 16 16 16 16 16 15 15 15 15 15 15 15 14 14 14 14 14 14 14 14 13 13
17 16 15 15 15 14 15 15 15 16 16 17 17 17 17 17 17 17 18 18 18 17 17 17 17 17 16 16 16 16 15 15 15 15 15 15 15 15 14 14 14 14 14 14 14 14 14 13 13
16 15 15 14 14 14 14 15 16 16 16 16 16 16 16 17 17 17 17 17 17 17 17 17 17 16 16 16 16 16 15 15 15 15 14 14 14 14 14 14 14 14 14 14 13 13 13 13 13
16 14 13 14 14 14 15 15 14 16 15 15 15 15 16 16 17 17 17 17 17 17 16 16 16 16 16 15 15 15 15 15 15 14 14 14 14 14 14 14 14 14 13 13 13 13 13 13 13
16 15 13 12 13 13 14 14 15 15 15 14 14 15 16 16 16 16 17 16 16 16 16 16 16 16 15 15 15 15 15 15 14 14 14 14 14 14 14 14 14 13 13 13 13 13 13 13 13
16 15 14 14 13 12 13 14 15 14 14 14 15 15 15 16 16 16 16 16 16 16 16 15 15 15 15 15 15 15 14 14 14 14 14 14 13 13 13 13 13 13 13 13 13 13 13 13 13
Wind_Speed
3 4 3 4 6 6 4 2 1 2 2 2 3 6 6 5 3 2 2 1 2 1 1 2 4 6 8 8 9 10 11 10 10 10 11 11 11 11 11 11 11 12 12 12 13 12 12 12 13
1 2 5 5 6 5 2 2 2 2 3 3 4 5 5 4 2 3 0 1 2 2 1 2 4 6 8 9 9 10 11 12 11 11 11 11 11 11 11 11 11 11 12 12 12 12 12 12 12
2 4 5 5 5 4 3 1 2 3 3 2 4 4 4 2 2 2 2 3 3 2 2 3 5 6 7 8 9 10 11 11 11 11 11 11 10 10 10 10 11 11 12 12 12 12 12 12 12
4 5 6 6 5 1 3 2 3 3 3 4 4 4 3 2 2 2 4 4 4 3 3 4 6 6 7 8 9 9 10 10 10 11 11 11 11 10 10 11 11 11 11 12 11 12 12 12 12
5 5 7 5 3 2 1 2 2 3 3 3 4 4 3 4 3 5 5 4 4 3 3 4 5 6 7 8 8 9 10 10 10 10 10 11 11 11 11 10 10 10 10 11 11 12 12 12 12
5 5 6 3 2 2 2 2 3 4 4 3 4 4 1 2 3 4 4 4 3 3 3 4 5 6 6 8 8 9 9 9 10 10 10 10 11 11 11 10 10 10 10 11 11 11 12 12 12
5 5 4 3 2 2 1 2 4 4 4 2 4 4 0 0 1 4 4 4 4 3 4 4 4 5 6 7 7 8 9 9 9 10 10 10 11 11 11 11 11 10 10 11 11 12 11 12 12
5 5 4 2 3 1 1 2 2 4 3 2 4 5 3 3 3 5 5 5 4 3 3 3 4 4 5 5 7 7 8 8 9 9 10 10 10 10 10 11 11 11 11 11 11 12 12 12 12
4 6 3 3 4 2 1 2 2 2 4 3 2 3 3 6 7 6 4 4 2 2 2 2 2 3 4 4 5 6 7 7 8 8 9 9 9 9 9 10 11 11 11 11 11 12 12 12 12
5 4 4 3 4 3 1 3 2 3 4 2 3 3 5 7 7 6 5 4 2 1 0 1 1 2 2 3 5 5 6 6 7 7 7 8 8 8 8 10 10 11 11 12 12 13 12 11 9
4 4 2 1 2 3 2 2 2 6 2 4 5 5 6 6 6 5 4 4 3 2 1 1 1 1 1 2 3 4 5 5 5 6 6 6 7 7 8 7 8 9 10 9 10 10 9 8 7
4 1 3 2 2 2 3 3 3 3 4 4 6 8 7 7 6 6 5 4 3 2 2 1 2 1 1 2 2 3 3 3 3 4 5 5 4 4 4 5 6 6 6 6 6 6 7 8 8
3 1 1 2 2 2 4 2 2 1 2 3 6 7 7 7 6 4 3 3 3 2 2 2 2 2 2 2 2 2 2 2 3 3 4 4 3 3 3 4 5 5 5 5 4 5 6 6 6
2 2 2 2 2 1 4 1 2 2 2 5 6 6 6 6 6 4 3 3 4 4 3 2 2 2 2 2 2 2 2 3 3 3 3 4 4 3 3 3 3 4 4 4 4 4 4 4 5
3 4 4 2 1 0 4 3 2 2 3 4 3 4 5 5 4 5 5 5 5 4 3 3 3 3 3 2 2 2 3 4 3 2 3 4 4 4 3 2 2 3 4 5 5 5 5 4 5
5 5 3 4 1 1 4 3 5 2 5 4 4 4 4 4 4 4 4 3 4 4 3 3 3 4 3 2 2 2 3 3 2 2 3 3 4 4 3 2 2 3 4 4 3 3 4 4 4
5 2 1 4 1 2 3 4 5 3 5 5 5 5 5 4 3 3 3 4 4 4 4 3 3 4 4 3 2 2 2 3 2 2 2 3 3 4 4 2 2 3 3 3 3 3 2 3 3
2 1 1 3 2 2 2 5 6 3 5 6 6 5 4 5 6 4 4 3 3 3 3 3 3 4 4 3 2 2 2 2 2 2 2 3 3 3 4 3 3 3 3 3 3 3 3 2 2
3 2 3 4 3 2 4 6 7 4 4 5 5 5 6 7 5 3 3 3 3 3 3 3 3 3 4 2 2 2 1 1 1 1 2 3 3 3 3 3 2 2 2 2 3 2 3 2 2
2 1 2 3 2 1 3 5 5 3 5 6 8 8 7 6 3 3 4 3 4 4 4 4 4 3 3 3 2 2 2 1 1 1 2 2 3 3 3 3 2 2 2 2 2 3 2 1 2
1 3 4 3 3 3 2 6 4 3 2 2 3 4 5 6 6 4 5 5 4 5 5 5 4 3 3 3 3 3 3 2 2 1 1 1 2 2 3 3 3 2 2 2 2 2 3 1 1
3 5 4 2 1 3 1 3 6 4 4 3 3 4 5 5 5 5 5 5 5 6 4 4 4 3 3 3 4 4 3 2 2 1 1 1 2 2 3 3 3 2 2 2 2 2 2 3 1
4 1 1 0 2 1 2 1 7 4 4 5 5 5 5 5 6 6 6 6 5 4 4 4 3 3 2 3 4 4 3 2 1 1 1 1 1 1 2 3 3 2 2 2 2 2 2 2 2
2 4 5 5 4 1 3 2 6 4 5 5 5 4 5 5 5 4 4 3 3 3 3 3 4 3 3 3 3 4 3 3 3 2 1 1 0 0 1 2 2 2 2 2 2 2 2 2 2
4 5 3 4 3 4 3 2 7 6 5 5 5 4 4 4 4 4 3 4 3 4 3 3 4 3 3 4 4 4 4 4 4 3 3 2 1 1 2 2 2 2 2 2 2 2 2 3 3
2 5 5 4 4 4 3 4 6 5 3 3 2 2 1 1 3 4 5 5 4 4 4 4 4 4 3 4 3 3 3 2 2 3 3 3 2 3 2 2 2 2 2 2 2 2 2 2 3
3 3 4 5 2 1 5 6 6 3 4 4 3 3 2 0 1 2 3 4 3 4 4 4 4 3 3 4 3 2 3 3 2 3 3 2 2 2 2 2 2 2 2 2 2 2 2 2 3
3 6 4 4 3 3 5 4 4 5 5 4 3 2 2 2 1 0 1 2 3 3 3 3 3 4 3 3 3 3 3 3 2 2 3 3 3 2 2 2 2 2 2 2 2 2 2 2 3
2 3 4 3 4 4 3 6 3 4 4 3 3 3 2 1 1 0 1 2 2 2 2 3 2 2 2 3 3 3 2 2 2 3 4 4 3 2 3 3 2 2 2 2 2 3 2 3 3
3 4 5 3 3 3 3 6 4 2 3 1 2 3 2 2 1 0 0 1 2 2 2 2 2 2 3 3 3 3 2 2 2 3 4 3 3 3 3 3 2 3 3 3 3 3 3 4 4
Wind_Direction
18 60 67 54 54 54 50 356 55 66 57 35 59 81 92 86 92 123 267 124 126 99 61 90 86 83 77 73 71 72 73 84 85 88 88 86 84 85 83 81 80 79 77 76 76 75 75 74 74
58 73 53 57 78 75 10 338 66 81 140 133 69 74 74 64 74 113 89 154 125 118 83 101 96 90 81 77 75 77 77 81 82 84 85 86 84 83 81 78 79 78 77 76 75 75 74 74 74
85 57 72 66 87 129 148 210 123 71 85 82 67 61 82 90 100 155 195 141 107 86 68 84 93 91 88 81 80 80 78 81 82 81 83 82 81 79 78 77 78 79 79 75 73 73 72 70 70
77 47 55 69 79 154 164 166 130 109 57 44 79 64 54 26 142 158 129 119 104 73 66 83 89 88 87 85 84 85 84 85 83 81 80 79 78 78 77 78 77 77 77 74 72 71 69 67 68
59 71 63 57 39 10 78 152 132 107 84 53 78 85 33 352 74 108 114 110 108 82 67 82 88 86 88 89 88 89 89 87 84 82 80 80 78 75 74 76 77 77 75 73 71 70 68 67 69
55 66 82 85 38 19 42 124 102 88 95 87 95 98 34 14 93 116 115 106 100 90 69 69 79 80 83 88 90 90 88 86 82 79 77 78 78 76 73 72 76 77 76 73 70 69 68 68 72
94 86 108 119 82 40 66 74 108 111 102 127 127 105 23 48 139 117 103 98 90 81 67 55 60 62 74 85 87 87 87 86 82 78 75 75 73 71 69 68 71 72 70 69 65 65 66 67 69
109 96 85 95 113 103 15 82 99 114 118 108 109 131 190 204 132 100 86 80 80 71 64 58 54 52 54 67 80 84 84 82 80 77 74 71 67 64 64 62 65 66 65 65 64 63 63 63 65
80 77 114 171 159 172 67 87 64 76 98 71 83 157 179 131 117 103 86 69 72 77 50 63 59 47 50 65 75 74 75 75 74 72 73 67 56 52 53 56 62 65 66 65 63 63 63 63 62
78 110 188 193 172 161 108 105 123 85 73 56 49 60 101 116 126 130 132 140 149 173 217 88 85 59 52 69 70 65 66 66 68 69 69 65 59 52 52 52 58 61 62 62 62 62 59 58 56
100 145 178 154 165 144 126 107 95 122 152 200 180 157 136 132 139 148 160 167 178 186 164 145 147 92 72 64 76 70 69 69 67 68 70 69 61 51 46 46 46 51 56 54 53 54 52 53 57
98 112 141 147 126 119 135 120 106 150 219 218 181 158 151 155 164 172 178 178 167 157 176 152 146 125 100 86 85 93 86 83 78 71 77 75 64 50 45 47 45 48 53 54 52 55 55 54 54
87 88 80 112 98 112 103 104 140 265 289 111 128 141 161 172 179 187 180 166 156 172 183 166 151 143 113 94 91 106 109 107 101 87 86 89 85 67 55 51 50 50 58 61 59 59 58 55 52
128 97 73 67 77 77 106 65 88 272 93 112 135 166 179 183 183 175 180 184 181 190 188 161 150 143 115 104 99 105 114 108 99 91 94 99 95 87 75 60 51 49 55 66 74 70 64 58 58
79 69 32 15 40 71 99 29 255 221 122 132 162 184 187 197 186 189 196 192 190 192 179 160 155 129 126 121 110 109 118 114 112 105 101 107 107 101 91 78 60 51 61 70 73 69 66 60 55
51 55 23 319 4 89 115 256 274 180 149 172 191 196 196 210 212 210 202 197 187 173 165 168 160 134 132 119 113 111 112 112 112 114 113 113 112 111 101 95 76 73 75 76 70 63 61 54 47
36 58 299 307 284 131 141 238 267 184 169 194 203 204 206 215 230 226 203 194 180 173 164 158 148 143 143 131 118 114 108 103 106 110 114 117 114 119 113 105 90 83 79 70 81 65 72 70 50
220 224 252 262 276 131 195 250 268 230 203 212 214 215 217 215 225 218 210 200 168 153 145 142 146 142 136 124 106 86 80 81 82 96 108 120 118 120 115 107 91 90 86 71 75 80 62 73 65
163 183 241 259 264 180 234 261 271 248 220 224 219 218 223 229 231 199 191 177 144 137 136 141 144 151 140 137 143 134 141 139 78 94 107 117 118 121 117 112 102 97 100 106 104 97 81 58 60
145 188 273 297 308 203 261 283 278 242 223 219 210 211 213 221 218 195 186 176 173 173 167 164 169 157 162 162 156 151 145 138 136 51 79 101 116 123 127 126 128 117 108 97 98 102 101 72 61
194 204 229 255 329 7 349 326 315 298 278 259 229 214 208 203 203 202 191 193 185 187 185 184 183 173 168 143 114 92 73 57 51 36 27 52 119 124 124 133 133 135 137 144 143 129 123 133 48
244 242 216 220 10 307 20 298 295 298 301 263 239 217 215 213 205 204 199 199 200 202 188 178 177 173 173 148 143 145 155 174 202 193 184 76 100 120 131 135 135 141 141 148 167 145 141 145 144
218 285 115 156 168 329 1 190 287 316 287 267 252 232 223 215 204 203 207 207 204 194 181 174 163 164 165 160 156 159 164 178 157 116 107 84 63 100 125 136 134 145 155 165 159 148 157 162 164
127 63 52 48 74 325 267 189 280 260 246 266 260 243 232 219 209 202 199 189 179 167 165 160 153 161 155 155 155 156 159 155 134 136 148 176 157 83 140 148 151 160 173 182 183 175 176 177 167
74 79 27 1 8 261 279 213 254 267 256 245 255 261 250 220 197 189 185 185 178 170 168 157 156 169 170 163 166 171 167 168 173 178 183 184 191 229 225 181 180 188 197 185 174 175 188 186 184
158 142 162 206 229 279 319 247 264 284 300 302 293 285 285 205 194 196 196 185 182 181 175 162 165 176 171 171 181 179 169 171 190 186 179 186 203 217 209 185 188 193 185 183 178 190 206 197 203
142 161 166 141 166 267 283 288 304 337 359 7 8 21 19 359 203 198 187 180 177 177 185 182 179 181 188 187 179 173 174 176 195 198 187 195 214 214 191 178 187 195 181 176 175 206 217 204 209
139 145 105 126 165 255 286 282 268 301 313 333 348 341 327 352 9 96 182 187 175 182 185 177 181 184 192 186 188 193 198 201 202 194 199 213 220 211 192 194 195 203 192 171 166 206 221 200 224
98 103 113 124 157 170 253 272 244 243 271 286 297 305 306 302 282 267 210 181 172 159 154 166 182 175 182 191 188 186 201 198 193 203 211 213 214 213 212 213 207 211 210 197 190 210 202 208 228
178 163 149 160 222 187 199 264 289 254 272 268 303 318 329 324 319 336 66 120 133 144 159 177 188 188 199 192 183 194 202 189 198 222 224 211 209 216 216 211 214 225 226 211 202 219 220 216 224
Height
1496 1495 1495 1497 1502 1516 1522 1518 1514 1513 1513 1513 1512 1512 1514 1517 1521 1526 1522 1519 1519 1518 1518 1517 1517 1516 1516 1515 1514 1512 1510 1509 1511 1512 1513 1514 1514 1514 1514 1514 1514 1514 1514 1514 1514 1513 1513 1513 1513
1496 1496 1498 1499 1513 1529 1525 1517 1515 1513 1513 1513 1514 1515 1516 1518 1519 1520 1520 1520 1520 1519 1519 1519 1518 1518 1517 1516 1515 1514 1513 1513 1513 1514 1515 1515 1515 1516 1516 1516 1516 1516 1516 1516 1516 1515 1515 1515 1515
1497 1498 1500 1505 1519 1527 1523 1516 1514 1514 1514 1514 1515 1516 1518 1520 1520 1521 1521 1521 1521 1521 1521 1520 1520 1519 1519 1518 1517 1517 1516 1516 1516 1516 1516 1516 1517 1517 1517 1517 1518 1518 1518 1517 1517 1517 1517 1517 1517
1499 1500 1503 1513 1520 1519 1517 1515 1514 1515 1515 1515 1516 1518 1520 1522 1522 1522 1522 1522 1522 1522 1522 1522 1521 1521 1520 1520 1519 1519 1518 1518 1518 1519 1518 1519 1519 1519 1519 1519 1519 1519 1519 1519 1519 1519 1519 1519 1519
1500 1502 1512 1522 1520 1517 1515 1515 1515 1515 1516 1517 1517 1520 1521 1523 1523 1523 1523 1524 1524 1524 1524 1523 1523 1522 1522 1522 1521 1521 1521 1521 1521 1521 1521 1521 1521 1521 1521 1521 1521 1521 1521 1521 1521 1521 1520 1520 1520
1502 1506 1522 1528 1522 1517 1516 1516 1516 1517 1518 1518 1519 1521 1523 1524 1524 1524 1525 1525 1525 1525 1525 1525 1525 1524 1524 1524 1523 1523 1523 1523 1523 1523 1523 1523 1523 1523 1523 1523 1523 1523 1523 1523 1522 1522 1522 1522 1521
1505 1513 1523 1524 1523 1520 1518 1517 1517 1518 1519 1520 1520 1522 1523 1524 1525 1526 1526 1526 1527 1527 1527 1526 1526 1526 1526 1525 1525 1525 1525 1525 1525 1525 1525 1525 1525 1525 1525 1525 1524 1524 1524 1524 1524 1524 1523 1523 1523
1505 1513 1522 1524 1524 1522 1518 1518 1518 1519 1520 1521 1521 1522 1523 1525 1526 1526 1527 1527 1528 1528 1528 1528 1527 1527 1527 1527 1527 1527 1527 1527 1527 1527 1527 1527 1527 1527 1527 1527 1527 1526 1526 1525 1526 1525 1525 1525 1525
1507 1518 1526 1523 1523 1520 1518 1518 1520 1520 1521 1522 1522 1523 1524 1525 1526 1527 1527 1528 1529 1529 1529 1529 1529 1529 1528 1528 1528 1528 1528 1529 1529 1529 1529 1529 1529 1529 1529 1529 1528 1528 1528 1528 1528 1527 1527 1527 1527
1509 1522 1521 1517 1517 1518 1518 1519 1520 1521 1522 1522 1523 1523 1524 1525 1526 1527 1528 1528 1529 1529 1530 1530 1530 1529 1529 1529 1529 1529 1530 1530 1530 1531 1531 1531 1531 1531 1531 1531 1530 1530 1530 1530 1529 1529 1529 1529 1529
1511 1517 1516 1516 1516 1517 1518 1519 1520 1521 1523 1522 1522 1523 1524 1526 1527 1528 1528 1529 1530 1530 1530 1530 1531 1530 1530 1530 1530 1530 1530 1531 1532 1532 1532 1533 1533 1533 1532 1532 1532 1532 1532 1531 1531 1531 1531 1531 1531
1513 1515 1515 1516 1517 1518 1518 1520 1521 1521 1522 1522 1523 1524 1524 1526 1527 1528 1529 1530 1530 1531 1531 1531 1531 1531 1531 1530 1530 1530 1531 1532 1533 1533 1534 1534 1534 1534 1534 1534 1534 1534 1533 1533 1533 1533 1533 1533 1533
1514 1516 1516 1516 1517 1518 1519 1520 1521 1521 1522 1522 1523 1524 1525 1526 1527 1529 1530 1530 1531 1531 1531 1531 1532 1532 1531 1531 1531 1531 1532 1533 1534 1535 1535 1535 1535 1535 1535 1535 1535 1535 1535 1535 1535 1535 1535 1534 1534
1515 1516 1517 1517 1518 1518 1519 1521 1522 1522 1522 1522 1523 1524 1526 1527 1528 1529 1530 1530 1531 1531 1532 1532 1532 1532 1532 1532 1532 1532 1533 1534 1535 1536 1536 1536 1537 1537 1537 1537 1537 1537 1537 1536 1536 1536 1536 1536 1536
1516 1518 1519 1519 1518 1520 1521 1524 1522 1522 1522 1522 1524 1525 1526 1527 1528 1528 1529 1530 1531 1531 1532 1532 1533 1533 1533 1533 1533 1533 1534 1535 1536 1537 1537 1537 1538 1538 1538 1538 1538 1538 1538 1538 1538 1537 1537 1537 1537
1518 1523 1528 1522 1520 1520 1525 1530 1522 1522 1522 1522 1523 1524 1525 1526 1527 1528 1529 1530 1531 1531 1532 1532 1533 1533 1534 1534 1534 1535 1535 1536 1537 1537 1538 1538 1538 1538 1538 1539 1538 1539 1539 1538 1538 1538 1538 1537 1537
1526 1532 1531 1526 1520 1521 1524 1527 1521 1521 1521 1522 1523 1523 1524 1526 1527 1528 1529 1530 1530 1531 1531 1532 1533 1533 1534 1535 1535 1536 1536 1537 1537 1538 1538 1539 1539 1539 1539 1539 1539 1539 1539 1539 1539 1539 1538 1538 1537
1533 1532 1531 1529 1522 1522 1525 1525 1520 1520 1520 1520 1521 1522 1523 1524 1525 1527 1528 1529 1530 1530 1531 1532 1533 1534 1534 1535 1536 1536 1537 1537 1538 1538 1539 1539 1539 1539 1540 1540 1540 1540 1539 1539 1539 1539 1539 1538 1538
1525 1529 1531 1527 1521 1523 1525 1524 1520 1519 1519 1519 1520 1521 1522 1523 1524 1526 1527 1529 1529 1530 1530 1531 1532 1533 1534 1535 1535 1536 1536 1537 1538 1538 1539 1539 1539 1540 1539 1539 1540 1540 1539 1539 1539 1539 1539 1538 1538
1525 1529 1530 1526 1521 1522 1524 1523 1519 1517 1517 1516 1517 1518 1519 1521 1522 1524 1526 1527 1528 1529 1530 1530 1532 1533 1533 1534 1535 1536 1536 1537 1537 1538 1538 1539 1539 1539 1539 1539 1539 1539 1539 1539 1539 1539 1538 1538 1538
1525 1528 1528 1527 1523 1522 1524 1526 1521 1516 1516 1516 1516 1516 1517 1519 1520 1522 1523 1525 1526 1528 1529 1530 1531 1532 1533 1534 1535 1535 1536 1536 1537 1537 1537 1538 1538 1538 1539 1538 1538 1538 1538 1538 1538 1538 1538 1538 1538
1528 1521 1522 1524 1530 1535 1530 1541 1526 1519 1516 1514 1514 1515 1515 1517 1518 1520 1522 1523 1525 1526 1528 1529 1530 1531 1532 1533 1533 1534 1534 1534 1535 1536 1536 1537 1537 1537 1537 1537 1537 1537 1537 1537 1537 1537 1537 1537 1537
1521 1519 1521 1524 1529 1536 1534 1539 1532 1521 1519 1514 1512 1512 1513 1514 1516 1517 1520 1521 1523 1525 1527 1528 1529 1530 1531 1532 1532 1533 1533 1534 1534 1535 1535 1536 1536 1536 1536 1536 1536 1536 1536 1536 1536 1536 1536 1536 1536
1518 1522 1526 1531 1536 1544 1536 1539 1536 1525 1518 1513 1510 1510 1510 1512 1513 1515 1518 1520 1521 1523 1525 1526 1527 1528 1529 1530 1531 1531 1532 1532 1533 1533 1534 1534 1534 1534 1534 1535 1535 1535 1534 1534 1534 1534 1534 1534 1535
1521 1532 1545 1546 1551 1548 1535 1536 1532 1516 1512 1511 1509 1509 1509 1510 1511 1513 1515 1517 1519 1521 1522 1524 1525 1526 1527 1528 1529 1529 1530 1530 1531 1531 1532 1532 1532 1532 1532 1532 1533 1533 1533 1533 1532 1532 1532 1533 1533
1523 1529 1545 1552 1553 1548 1537 1537 1525 1513 1510 1509 1508 1508 1508 1508 1510 1511 1512 1514 1517 1519 1520 1521 1523 1524 1525 1526 1526 1527 1528 1528 1529 1529 1530 1530 1530 1530 1530 1530 1530 1530 1530 1530 1530 1530 1530 1530 1530
1524 1529 1530 1542 1545 1549 1542 1531 1519 1511 1510 1509 1508 1507 1507 1507 1508 1509 1510 1512 1514 1516 1518 1519 1521 1522 1523 1523 1524 1525 1525 1526 1526 1527 1527 1528 1528 1528 1528 1528 1528 1528 1528 1528 1528 1528 1528 1528 1528
1520 1525 1535 1541 1548 1551 1542 1535 1530 1517 1514 1511 1509 1508 1507 1507 1507 1508 1509 1510 1512 1514 1516 1517 1518 1519 1520 1521 1522 1522 1522 1523 1523 1524 1524 1525 1525 1525 1525 1525 1525 1525 1525 1525 1525 1525 1525 1525 1525
1523 1527 1532 1540 1542 1550 1549 1539 1518 1516 1513 1512 1510 1508 1508 1507 1507 1507 1507 1508 1510 1512 1513 1515 1515 1516 1517 1518 1519 1519 1519 1520 1520 1520 1521 1521 1522 1522 1522 1522 1521 1521 1521 1521 1522 1522 1522 1522 1522
1518 1522 1529 1538 1541 1543 1545 1538 1513 1512 1511 1510 1509 1508 1507 1507 1507 1506 1507 1507 1508 1509 1511 1512 1512 1513 1514 1515 1515 1516 1516 1516 1516 1517 1517 1518 1518 1518 1518 1518 1518 1518 1518 1518 1518 1518 1518 1518 1518